"Pseudo-MPEC" for P110ClT

Created 2020 May 26 13:07:16 UT using Find_Orb

Click here for an explanation of pseudo-MPECs

 
 Astrometry: 
     P110ClT  C2020 05 20$HWAstrometryw!'Hy4V,b*k!V^?ehdp1s)YavHeDNvu)XD(lTh.F51
     P110ClT  C2020 05 208Yd96#X!kvLredacted;VclickoUi1hereQ7vO?MJH_H+Qs9n-$.F51
     P110ClT  C2020 05 20C'@xL=J\fYLw0=forN97Ud_:2jEi^]KEnwfFI]K`I*f!o)O.t*LZF51
     P110ClT  C2020 05 20x_$C(B[emx1;uQyexplanation4g97q%8@bA)]%U=#nAFv(eZ''/F51
     P110ClT ^C2020 05 25.37140216 01 04.872-15 05 15.18   ~5PK7 21.75GVNEOCP568
     P110ClT ^C2020 05 25.37329716 01 04.718-15 05 13.55   ~5PK7 21.98GVNEOCP568
     P110ClT ^C2020 05 25.37519016 01 04.565-15 05 11.92   ~5PK7 22.06GVNEOCP568

Station data:
(568) Mauna Kea  (N19.826116 W155.472200)  US/Hawaii.
(F51) Pan-STARRS 1, Haleakala  (N20.707235 W156.255910)  US/Hawaii.
   Observers N. Primak, A. Schultz, S. Watters, J. Thiel, T. Goggia. Measurer
   PS1 Science Consortium. 1.8-m Ritchey-Chrétien + CCD.

Orbital elements:  P110ClT
   Perihelion 2021 Jul 8.508798 +/- 323 TT = 12:12:40 (JD 2459404.008798)
Epoch 2020 May 25.0 TT = JDT 2458994.5   Earth MOID: 0.4006   Ma: 0.0913
M 193.10763286 +/- 110              (J2000 ecliptic)          AutoNEOCP
n   0.40754281 +/- 0.204            Peri.  179.40438 +/- 70
a   1.80171968 +/- 0.603            Node   235.26094 +/- 5.9
e   0.2288532 +/- 0.219             Incl.   21.76036 +/- 33
P   2.42/883.33d           H 19.9   G  0.15   U 11.7  SR
q 1.38939022 +/- 0.872    Q 2.21404915 +/- 10.7
From 7 observations 2020 May 20-25; mean residual 0".12
Residuals in arcseconds: 
200520 F51  .15+  .02+    200520 F51  .20-  .05+    200525 568  .02+  .04-    
200520 F51  .25+  .02+    200525 568  .02-  .04+    
200520 F51  .20-  .10-    200525 568  .00   .00     

Ephemerides (geocentric):
Date (UTC) HH   RA              Dec         delta   r     elong  mag " sig PA
---- -- -- --  -------------   -----------  ------ ------ -----  --- ---- ---
2020 05 26 13  15 59 32.628   -14 47 59.25  1.1975 2.2062 172.7 22.3 48.4  36
2020 05 26 14  15 59 29.360   -14 47 22.62  1.1975 2.2062 172.7 22.3 50.4  36
2020 05 26 15  15 59 26.092   -14 46 45.99  1.1975 2.2062 172.6 22.3 52.4  36
2020 05 26 16  15 59 22.825   -14 46 09.36  1.1975 2.2062 172.6 22.3 54.5  36
2020 05 26 17  15 59 19.559   -14 45 32.75  1.1976 2.2061 172.5 22.3 56.5  36
2020 05 26 18  15 59 16.293   -14 44 56.14  1.1976 2.2061 172.5 22.3 58.6  36
2020 05 26 19  15 59 13.029   -14 44 19.55  1.1976 2.2061 172.5 22.3 60.7  36
2020 05 26 20  15 59 09.765   -14 43 42.95  1.1976 2.2061 172.4 22.3 62.8  36
2020 05 26 21  15 59 06.502   -14 43 06.37  1.1977 2.2061 172.4 22.3 64.9  36
2020 05 26 22  15 59 03.240   -14 42 29.80  1.1977 2.2060 172.3 22.3 67.1  36
2020 05 26 23  15 58 59.979   -14 41 53.23  1.1977 2.2060 172.3 22.3 69.3  36
2020 05 27 00  15 58 56.719   -14 41 16.67  1.1977 2.2060 172.2 22.3 71.5  36
2020 05 27 01  15 58 53.460   -14 40 40.12  1.1978 2.2060 172.2 22.3 73.7  36
2020 05 27 02  15 58 50.201   -14 40 03.57  1.1978 2.2060 172.2 22.3 75.9  36
2020 05 27 03  15 58 46.943   -14 39 27.04  1.1978 2.2059 172.1 22.3 78.2  36
2020 05 27 04  15 58 43.686   -14 38 50.51  1.1979 2.2059 172.1 22.3 80.5  36
2020 05 27 05  15 58 40.430   -14 38 13.99  1.1979 2.2059 172.0 22.3 82.8  36
2020 05 27 06  15 58 37.175   -14 37 37.48  1.1979 2.2059 172.0 22.3 85.1  36
2020 05 27 07  15 58 33.921   -14 37 00.98  1.1980 2.2059 171.9 22.3 87.5  36
2020 05 27 08  15 58 30.668   -14 36 24.48  1.1980 2.2058 171.9 22.3 89.9  36
2020 05 27 09  15 58 27.416   -14 35 48.00  1.1980 2.2058 171.9 22.3 92.3  36
2020 05 27 10  15 58 24.164   -14 35 11.52  1.1981 2.2058 171.8 22.3 94.7  36
2020 05 27 11  15 58 20.914   -14 34 35.05  1.1981 2.2058 171.8 22.3 97.1  36
2020 05 27 12  15 58 17.664   -14 33 58.59  1.1981 2.2058 171.7 22.3 99.6  36
2020 05 27 13  15 58 14.415   -14 33 22.14  1.1982 2.2057 171.7 22.3  102  36
2020 05 27 14  15 58 11.168   -14 32 45.70  1.1982 2.2057 171.6 22.3  105  36
2020 05 27 15  15 58 07.921   -14 32 09.27  1.1982 2.2057 171.6 22.3  107  36
2020 05 27 16  15 58 04.675   -14 31 32.84  1.1983 2.2057 171.6 22.3  110  36
2020 05 27 17  15 58 01.431   -14 30 56.43  1.1983 2.2057 171.5 22.3  112  36
2020 05 27 18  15 57 58.187   -14 30 20.02  1.1983 2.2056 171.5 22.3  115  36
2020 05 27 19  15 57 54.944   -14 29 43.62  1.1984 2.2056 171.4 22.3  117  36
2020 05 27 20  15 57 51.702   -14 29 07.23  1.1984 2.2056 171.4 22.3  120  36
2020 05 27 21  15 57 48.461   -14 28 30.86  1.1985 2.2056 171.3 22.3  123  36
2020 05 27 22  15 57 45.221   -14 27 54.49  1.1985 2.2056 171.3 22.3  125  36
2020 05 27 23  15 57 41.983   -14 27 18.12  1.1985 2.2055 171.2 22.3  128  36
2020 05 28 00  15 57 38.745   -14 26 41.77  1.1986 2.2055 171.2 22.3  131  36
2020 05 28 01  15 57 35.508   -14 26 05.43  1.1986 2.2055 171.1 22.3  133  36
2020 05 28 02  15 57 32.272   -14 25 29.10  1.1987 2.2055 171.1 22.3  136  36
2020 05 28 03  15 57 29.038   -14 24 52.78  1.1987 2.2055 171.1 22.3  139  36
2020 05 28 04  15 57 25.804   -14 24 16.46  1.1987 2.2054 171.0 22.3  142  36
2020 05 28 05  15 57 22.572   -14 23 40.16  1.1988 2.2054 171.0 22.3  145  36
2020 05 28 06  15 57 19.340   -14 23 03.86  1.1988 2.2054 170.9 22.3  147  36
2020 05 28 07  15 57 16.110   -14 22 27.58  1.1989 2.2054 170.9 22.4  150  36
2020 05 28 08  15 57 12.880   -14 21 51.31  1.1989 2.2054 170.8 22.4  153  36
2020 05 28 09  15 57 09.652   -14 21 15.04  1.1990 2.2053 170.8 22.4  156  36
2020 05 28 10  15 57 06.425   -14 20 38.79  1.1990 2.2053 170.7 22.4  159  36
2020 05 28 11  15 57 03.199   -14 20 02.54  1.1990 2.2053 170.7 22.4  162  36
2020 05 28 12  15 56 59.974   -14 19 26.31  1.1991 2.2053 170.6 22.4  165  36